Voltar ao catálogo

ISIS 1 DEB

AtivoPO
NORAD 31999·DEBRIS·🇨🇦 Canada

Lançado Jan 30, 1969 de Vandenberg Space Force Base

Loading…

Próximas Passagens (próximas 24 horas)

TLE

AtualizadoSource: Space-Track

Época: Sep 13, 2026, 11:16 UTC

1 31999U 69009C   26256.47013869  .00006167  00000-0  30452-2 0  9990
2 31999  88.3779  79.5215 1213883 268.3179  77.8851 12.37444036819813

Acompanhe ISIS 1 DEB em tempo real com AllMySat

Download on the App Store